Location: Wavehorne
(51.0500°N, 0.8333°E)
Time: 20:07:56
(UTC+00:00)

CZ-4 R/B - Pass Details

Date: 20 June 2021
Orbit: 682 x 752 km, 98.5° (Epoch: 01 August)

Event Time Altitude Azimuth Distance (km) Brightness Sun altitude
Rises 00:43:44 0° 18° (NNE) 3,059 9.0 -14.8°
Reaches altitude 10° 00:46:01 10° 23° (NNE) 2,140 7.6 -14.8°
Maximum altitude 00:50:36 54° 101° (E) 840 4.2 -14.6°
Enters shadow 00:53:35 21° 172° (S) 1,533 5.0 -14.5°
